Temp
26 26 26 26 26 27 27 27 27 26 27 27 27 27 26 26 25 25 24 22 21 20 21 21 20 20 19 19 20 19 19 18 14 15 15 15 15 15 15 14 13 13 12
27 26 26 26 26 26 26 26 26 26 26 26 27 26 26 25 25 25 24 22 21 20 20 20 19 19 18 18 19 18 19 18 16 14 14 14 14 14 14 13 13 12 12
26 26 26 26 26 26 26 26 26 26 27 27 26 26 26 25 25 24 23 22 21 20 20 20 18 19 18 18 18 17 17 16 15 14 13 13 13 14 14 13 13 12 12
26 26 25 26 26 26 26 26 26 26 26 26 26 26 26 25 24 24 23 21 21 20 20 19 18 18 17 18 17 16 16 15 14 13 12 12 12 13 13 13 13 12 12
26 25 26 27 27 26 26 26 26 26 26 26 26 26 26 25 25 23 22 21 20 19 19 19 18 18 18 18 17 16 16 15 14 13 11 11 12 12 12 12 12 12 12
26 26 26 26 26 26 26 26 26 26 26 26 26 26 26 25 25 23 22 21 20 20 19 18 18 18 17 17 17 16 15 15 14 12 11 10 11 11 12 12 12 12 11
26 26 26 26 26 26 27 26 26 26 26 26 26 26 26 26 25 23 22 22 20 20 19 18 17 17 17 17 16 16 15 14 13 13 12 11 10 11 11 12 12 11 10
26 26 26 26 26 27 26 26 26 26 26 26 25 26 26 25 23 23 22 21 20 20 19 18 17 17 17 17 16 16 15 14 13 13 13 12 12 12 11 11 12 11 11
26 26 26 26 26 27 26 26 26 26 26 26 25 25 25 24 23 22 21 21 20 19 18 18 17 17 17 17 16 15 15 15 14 14 13 13 13 13 13 13 10 10 10
27 28 27 27 27 27 27 26 26 26 26 26 25 25 25 24 21 21 21 21 20 19 18 17 17 17 17 17 17 17 16 16 15 14 13 13 14 14 12 11 10 10 9
29 29 28 27 28 28 27 27 27 26 26 26 25 25 24 24 22 21 22 21 20 19 18 17 17 17 17 17 18 17 17 16 16 15 13 13 13 13 11 10 10 9 8
27 29 28 28 27 27 27 27 26 26 26 25 25 23 23 23 22 21 21 22 21 20 19 18 18 18 18 17 17 17 17 17 17 15 15 13 13 13 12 11 11 10 9
26 27 28 27 27 27 27 26 25 25 24 24 23 22 22 21 21 20 21 21 21 20 20 19 18 18 18 18 18 18 18 18 17 17 16 15 14 14 12 11 11 10 9
24 26 28 27 26 26 26 26 25 24 24 23 23 22 21 21 20 20 20 21 20 20 19 18 18 18 18 18 18 18 18 18 18 17 16 16 15 14 13 12 12 11 10
24 24 27 27 27 26 25 25 24 25 24 24 23 23 21 20 20 21 21 21 20 20 19 18 18 18 18 18 18 18 18 18 18 18 16 16 16 15 14 13 12 11 10
22 22 27 27 28 27 26 24 25 25 24 24 24 23 23 24 24 21 21 21 21 20 19 18 18 18 18 18 18 18 18 18 18 18 17 16 15 15 14 13 13 11 10
19 20 23 26 27 27 26 25 23 24 24 24 24 25 25 25 24 23 21 21 21 20 19 19 19 19 19 18 18 19 18 19 18 18 18 16 15 15 14 13 13 12 11
18 20 21 22 24 24 26 25 24 24 24 23 23 24 23 24 24 22 20 20 19 19 20 20 19 19 19 19 19 19 19 19 18 18 18 17 16 15 14 13 13 12 11
17 18 20 22 22 21 21 21 20 20 22 23 23 22 22 21 21 21 20 21 19 18 20 20 20 20 19 19 19 19 19 19 19 19 18 18 16 16 15 14 12 12 12
17 17 18 19 21 21 20 20 18 19 18 18 19 20 21 20 18 18 19 19 19 19 19 20 20 20 20 20 19 19 19 19 19 19 19 18 17 16 15 15 13 12 12
18 17 17 17 20 20 19 17 17 20 18 17 18 18 19 20 19 19 19 19 19 19 19 20 20 21 20 20 20 20 20 19 19 19 19 18 18 17 16 16 14 13 12
15 16 16 16 17 18 19 21 18 17 17 15 16 16 16 17 17 16 17 18 18 19 20 20 20 20 21 21 21 20 20 20 19 19 19 18 18 17 16 16 15 14 12
13 13 14 14 15 15 15 20 22 18 16 15 15 16 17 18 18 18 18 18 18 19 19 19 20 20 21 21 21 21 21 21 20 20 19 19 18 18 17 16 15 15 14
12 12 12 12 12 12 12 13 14 16 13 14 14 13 14 15 16 16 16 16 17 17 18 18 19 19 20 21 21 21 21 21 21 20 20 19 19 18 18 17 16 16 15
12 12 11 11 10 10 11 11 11 10 10 10 10 10 11 12 14 15 16 17 16 17 17 17 17 18 18 20 21 21 21 21 20 20 20 19 19 19 18 18 17 17 16
12 11 11 11 10 10 9 9 9 9 9 9 9 9 10 11 11 12 14 16 16 16 16 16 15 16 17 18 19 20 20 20 20 20 20 19 19 19 19 18 18 17 17
Height
783 788 794 798 802 806 809 811 813 814 814 814 814 813 813 813 812 810 810 810 810 810 810 809 810 812 811 811 810 808 806 806 808 811 810 808 805 805 804 804 804 802 801
778 783 788 793 798 801 804 807 810 811 812 812 812 812 812 812 811 810 810 812 811 812 812 812 813 814 815 814 812 810 808 808 809 810 810 809 807 805 805 805 804 803 801
774 779 784 788 793 797 799 803 807 808 809 809 810 809 810 811 811 811 811 811 813 814 815 816 817 817 817 817 815 813 813 813 812 812 810 809 808 807 807 805 804 802 801
770 774 779 783 787 792 795 799 802 805 806 806 808 808 810 810 811 811 811 812 814 817 819 819 819 819 819 819 817 818 817 816 815 813 811 809 809 808 806 804 803 801 800
764 769 773 778 783 788 792 796 799 801 802 804 806 807 808 808 809 809 810 813 815 817 819 820 821 821 821 821 821 821 820 819 818 816 814 812 810 807 805 803 800 799 800
758 762 769 774 779 784 788 792 796 798 799 801 803 804 805 806 807 808 810 812 815 817 818 821 823 824 825 825 824 824 823 822 820 818 817 815 812 808 805 802 799 800 801
753 759 764 770 775 780 784 789 791 794 795 798 800 801 803 804 805 807 810 812 814 816 818 821 824 826 827 828 827 827 826 826 824 822 819 817 813 809 806 802 802 801 803
750 755 760 765 770 776 780 785 787 790 791 794 798 799 801 802 804 806 809 812 814 817 820 823 825 826 828 829 830 829 828 828 827 825 823 821 817 812 807 804 804 804 803
745 751 756 760 765 771 776 780 783 785 788 790 794 796 798 801 803 806 809 812 816 820 823 825 827 828 829 829 831 831 831 830 830 829 828 825 821 816 813 809 805 804 804
740 745 751 756 761 765 770 774 778 780 783 788 791 793 796 798 802 806 809 812 816 819 822 826 828 829 829 830 831 833 833 833 831 830 830 829 825 821 816 812 809 807 805
737 742 747 753 757 761 765 770 773 777 781 785 788 791 795 797 800 804 807 811 814 817 820 823 826 830 831 832 833 833 833 833 832 831 830 830 829 826 821 818 814 810 808
739 739 743 748 753 757 761 765 769 773 777 781 785 788 793 796 798 803 807 810 812 814 817 821 824 828 831 833 834 834 834 833 834 834 832 831 831 830 828 825 820 816 813
738 740 741 745 749 752 756 760 766 770 774 778 781 785 789 793 798 802 805 809 812 815 817 820 824 827 829 831 834 835 835 834 834 834 834 832 833 833 832 831 828 824 819
738 741 740 743 747 751 755 758 761 766 770 774 779 783 787 791 795 800 804 807 811 815 818 822 825 827 829 831 833 834 834 835 835 835 835 834 834 834 834 835 833 831 826
738 740 741 743 745 750 754 756 759 763 767 771 776 780 783 786 789 794 798 802 806 811 815 820 823 825 827 830 831 833 834 835 836 836 836 835 836 836 837 836 836 835 832
737 742 741 742 744 747 750 754 757 761 765 769 772 775 779 782 786 792 797 801 805 809 812 815 818 821 824 828 830 833 834 835 836 837 837 838 838 838 838 838 839 838 836
740 745 743 742 743 744 747 751 752 756 760 764 767 772 775 778 782 789 795 800 804 807 809 811 813 817 821 824 827 830 833 835 836 836 838 839 839 840 840 841 841 842 842
744 747 742 741 741 742 742 746 748 751 754 759 764 768 772 777 781 784 792 799 803 806 807 809 811 813 817 821 825 829 832 834 835 837 838 840 840 842 842 843 844 845 846
747 747 742 741 742 743 747 750 752 751 753 756 762 765 768 776 783 784 789 795 797 801 802 805 808 811 815 819 822 825 829 832 835 837 838 840 841 842 844 845 847 848 849
750 749 749 745 739 744 748 753 753 753 734 762 766 764 765 773 779 786 787 792 795 796 800 802 807 810 813 816 820 822 826 830 832 835 837 839 841 843 845 846 849 850 852
760 755 755 754 742 737 736 747 754 758 759 775 772 771 770 770 772 781 783 788 795 797 799 804 806 808 811 813 817 819 822 826 829 832 834 837 840 842 845 847 850 853 854
760 758 761 761 751 741 738 733 751 753 760 765 770 772 776 775 777 783 783 786 793 797 800 803 806 807 807 809 811 814 817 821 825 828 832 835 838 842 845 847 850 853 856
765 765 763 757 751 750 747 732 734 758 763 771 776 779 780 778 779 784 782 787 793 794 797 799 802 802 803 803 805 809 812 815 819 824 828 832 836 840 843 846 848 851 854
773 768 763 761 759 756 757 754 722 762 781 782 784 783 780 782 784 782 780 787 791 793 795 797 798 798 799 799 801 805 807 811 815 819 823 828 832 836 841 844 846 848 851
777 773 771 772 770 769 765 761 764 773 782 786 789 791 788 785 783 785 784 784 789 787 792 794 796 796 797 797 797 801 804 807 811 815 820 824 827 831 835 839 843 846 849
786 785 783 781 779 779 777 777 778 784 787 787 788 791 791 791 790 786 783 783 789 784 792 793 794 792 794 797 797 795 799 803 805 810 815 819 822 826 829 833 838 841 845
Wind_Speed
35 33 32 31 30 29 27 23 19 14 11 13 14 12 8 7 7 6 3 8 11 11 11 12 13 13 13 12 12 13 13 8 7 6 4 7 7 5 3 2 2 5 8
36 33 33 32 31 28 26 23 20 21 15 14 13 11 7 5 6 1 5 9 10 12 11 12 15 13 14 14 11 14 14 13 16 8 5 5 8 6 2 3 2 3 7
36 34 32 31 31 31 28 23 19 20 20 20 16 11 8 7 4 4 9 12 10 11 11 13 13 12 13 13 16 18 19 15 12 8 4 4 6 6 5 3 5 3 1
36 34 33 33 32 31 29 25 20 20 19 18 14 12 9 7 6 9 12 14 13 12 11 11 12 11 12 13 15 15 17 19 18 17 12 7 5 8 6 7 4 8 6
36 33 36 35 33 30 29 25 21 20 20 18 16 13 10 9 9 15 15 16 16 15 15 15 13 14 16 19 20 20 19 21 19 19 15 10 9 8 10 10 5 3 6
34 36 34 34 33 31 28 26 22 22 21 20 17 14 12 12 11 16 16 19 16 16 19 19 19 20 20 21 23 23 22 22 23 22 18 9 12 8 9 11 5 1 2
34 32 34 34 33 31 28 27 24 24 23 22 17 15 14 13 12 17 17 17 18 18 20 22 22 20 18 17 17 17 17 16 22 24 22 17 10 11 7 7 10 13 9
29 32 35 34 33 31 28 28 26 25 25 23 18 16 15 14 19 16 19 17 18 18 18 18 18 18 14 12 10 11 12 11 15 21 24 22 20 16 10 6 6 6 7
31 33 34 35 33 32 31 30 28 27 26 24 20 19 18 20 20 18 21 19 20 20 17 15 13 14 11 9 7 7 6 7 6 8 16 22 24 24 21 16 15 10 6
31 36 36 35 35 34 33 31 30 28 27 23 20 20 20 23 25 22 20 22 23 22 16 14 11 11 11 8 6 7 5 4 4 3 9 17 22 25 27 26 23 17 8
35 35 34 34 35 34 33 31 30 29 27 24 22 21 23 25 27 25 21 23 24 22 21 19 15 12 9 8 6 8 5 3 4 5 6 10 16 22 25 25 26 25 17
23 31 33 34 34 33 32 31 31 30 28 25 23 22 23 27 28 28 22 19 21 22 22 19 17 15 11 9 7 4 3 6 7 7 5 5 8 16 23 27 28 23 22
11 25 28 30 32 32 33 31 29 30 24 24 21 22 25 26 30 28 23 18 18 17 19 18 17 15 13 11 8 5 4 8 7 6 7 4 5 6 11 17 24 29 30
6 19 25 27 28 29 29 29 27 25 23 23 20 19 23 26 33 30 26 22 19 17 18 18 17 14 13 13 8 4 9 9 8 8 8 8 9 2 2 6 8 14 26
12 14 21 24 27 27 25 23 24 26 26 23 22 24 26 26 35 36 33 30 27 23 23 22 19 17 17 14 10 9 11 10 8 7 9 11 10 6 5 6 7 12 19
12 20 14 21 25 26 28 22 24 22 24 24 25 29 31 29 29 37 33 30 28 27 27 27 24 21 21 17 12 12 9 11 10 9 8 13 13 11 10 12 11 15 20
15 16 11 13 23 24 26 27 24 24 23 25 26 25 28 28 26 28 38 30 29 28 29 28 26 25 22 21 15 15 12 12 10 10 9 13 15 13 13 14 15 18 19
15 9 4 4 8 11 25 27 28 28 23 22 27 27 29 25 20 27 37 29 32 31 30 29 27 25 23 22 18 16 15 14 13 12 12 10 17 16 14 14 14 16 16
23 12 15 17 18 15 14 10 6 7 15 22 25 26 22 21 18 24 35 35 37 32 31 29 27 25 23 20 20 18 19 17 15 13 11 11 18 18 15 15 14 16 17
21 15 10 19 27 27 22 26 31 22 11 5 16 28 29 29 31 34 34 31 33 30 29 28 24 22 21 21 20 20 22 20 18 16 13 14 18 19 19 17 17 20 22
10 14 13 7 11 18 20 21 21 9 17 18 12 19 28 35 37 36 36 27 28 25 21 20 18 18 20 21 22 23 24 25 21 18 16 18 22 22 20 19 18 18 21
7 9 8 8 9 19 22 27 16 12 10 10 11 10 16 22 25 25 24 22 20 18 17 17 17 13 15 23 24 25 27 28 25 23 21 21 21 23 23 22 21 20 20
19 18 19 19 19 15 11 33 26 13 15 8 9 8 11 13 16 17 18 14 15 17 16 19 20 12 9 19 27 24 27 29 28 26 25 24 23 25 23 26 25 24 23
23 23 24 27 29 26 20 19 40 21 10 10 9 11 15 14 12 10 7 5 12 16 17 17 20 20 13 10 25 25 17 21 26 27 26 27 26 26 23 29 29 26 26
25 25 26 25 25 24 28 31 29 26 21 16 15 13 13 15 15 12 9 6 2 4 6 10 23 22 15 16 18 26 18 18 26 26 28 28 28 26 26 33 32 30 29
26 26 25 26 25 24 25 26 26 26 27 26 23 22 20 17 16 15 14 11 6 7 3 4 3 6 14 15 13 25 24 14 16 26 28 29 30 29 29 35 34 33 33
Wind_Direction
210 212 215 217 223 229 236 243 246 251 254 268 284 304 329 345 353 356 42 117 113 114 102 95 96 94 88 74 65 60 57 77 121 99 80 44 45 85 74 32 48 31 24
212 213 214 217 219 223 230 234 235 241 252 266 280 293 309 324 333 41 140 139 138 121 110 106 102 99 86 74 69 76 76 109 112 95 47 46 64 87 67 314 316 6 27
208 212 214 217 221 223 225 226 229 241 251 259 267 273 286 285 275 173 153 152 146 124 116 112 107 101 93 84 85 87 88 89 73 71 37 68 74 72 45 356 242 255 22
203 206 211 217 220 223 226 226 227 238 245 251 253 263 275 254 223 177 162 157 148 129 120 114 109 91 92 90 93 90 86 79 65 52 49 53 62 39 28 9 320 244 225
197 199 210 220 222 223 225 225 223 231 239 246 248 250 254 248 216 183 173 163 150 134 121 115 111 102 96 89 89 89 82 75 59 45 44 47 41 29 14 360 321 306 191
192 202 207 213 218 220 222 221 218 227 235 241 240 243 240 241 227 196 183 164 155 145 130 120 115 110 102 96 91 87 76 76 61 52 44 27 23 2 5 7 24 20 25
193 196 205 213 215 218 218 216 215 224 232 235 234 233 234 238 213 196 184 171 160 152 142 133 125 120 111 106 99 92 84 75 63 58 54 38 13 6 4 40 91 80 60
191 195 203 206 211 213 212 211 215 222 228 231 223 224 220 207 183 194 179 170 163 157 151 144 138 135 123 117 110 104 98 85 75 62 61 54 47 36 34 50 129 77 50
189 197 204 205 205 208 207 208 213 220 228 229 218 214 206 187 188 187 175 171 165 157 156 159 157 150 142 138 135 122 113 111 88 64 60 54 53 51 48 49 45 59 40
194 203 209 208 207 205 206 206 214 219 224 223 214 213 204 192 185 182 181 175 167 167 171 167 160 155 154 151 137 134 98 140 136 104 83 60 52 50 48 52 62 55 27
206 207 209 211 211 210 208 207 213 218 222 218 213 208 200 198 187 188 187 180 176 175 173 173 167 165 164 164 151 135 105 86 152 168 124 75 56 51 55 51 52 52 51
217 208 209 211 208 209 209 210 213 215 217 213 207 199 198 197 195 188 191 197 188 180 180 177 171 166 166 175 181 145 87 134 121 119 128 119 74 61 59 62 57 58 59
213 209 206 208 208 211 206 204 205 211 203 199 193 185 193 197 190 187 192 192 192 192 184 179 170 167 174 177 168 155 147 152 116 97 79 110 118 79 73 64 60 62 64
334 228 207 208 205 207 206 204 200 200 198 194 189 180 189 192 188 185 189 189 188 188 180 175 172 171 169 162 164 194 163 159 118 101 87 98 123 97 31 47 43 45 62
348 298 225 213 209 206 203 203 205 210 206 199 196 196 188 183 195 193 192 188 186 183 173 173 175 177 175 171 160 143 150 162 146 122 109 110 119 107 46 65 78 78 69
359 322 248 226 220 216 211 206 210 210 213 215 210 207 216 217 208 199 198 198 191 185 179 178 185 187 184 179 175 168 156 157 158 143 130 126 122 112 96 103 99 80 89
0 315 316 247 234 217 214 213 205 211 211 214 219 228 231 221 215 206 198 198 195 191 191 192 193 192 191 185 182 177 173 166 161 154 142 137 134 116 105 109 111 100 91
9 7 38 355 259 234 221 219 217 206 200 204 204 213 223 227 218 200 195 191 186 197 205 202 202 201 197 194 192 189 183 174 170 157 157 149 152 139 113 112 128 118 110
18 6 70 79 76 77 76 35 261 227 203 196 195 198 203 195 196 196 191 191 190 196 209 210 211 208 201 197 198 196 192 185 181 182 178 164 162 149 130 115 129 136 123
20 18 41 93 96 84 67 51 50 32 27 232 202 187 174 172 175 185 186 199 199 204 211 212 214 216 208 202 204 203 198 192 188 188 195 185 173 164 151 139 134 136 133
354 37 23 51 119 123 97 64 47 6 12 308 214 190 179 180 180 191 189 202 208 209 212 213 212 212 214 210 213 210 203 197 194 188 180 175 173 171 162 154 149 146 144
59 36 43 32 72 94 110 98 71 75 322 203 139 158 185 187 187 190 193 203 212 218 216 214 215 231 239 224 217 213 206 199 196 191 185 183 182 176 170 169 164 162 159
58 64 63 59 64 68 72 111 109 47 20 59 95 112 152 161 182 197 199 206 213 218 216 221 228 226 250 228 220 218 213 208 204 197 191 187 184 184 185 184 179 174 175
54 55 61 60 63 64 61 65 102 127 105 83 70 63 86 107 122 121 135 211 233 228 227 227 230 222 228 234 219 214 226 225 214 206 202 195 195 197 204 195 190 190 187
61 59 59 59 64 64 66 72 77 84 89 89 75 63 70 75 74 83 100 110 142 172 251 269 247 240 242 237 215 217 221 230 221 214 208 205 202 205 207 200 198 196 198
65 66 66 65 60 63 70 74 73 74 75 70 66 59 59 58 57 60 69 76 78 90 57 16 340 238 247 242 234 213 213 213 227 222 215 212 208 208 207 204 202 202 200